Weather Roundup
Issued by NWS

Home | Current Version | Previous Version | Graphics & Text | Print | Product List | Glossary Off
Versions: 1 2 3 4 5 6 7 8 9 10 11 12 13 14 15 16 17 18 19 20 21 22 23 24 25 26 27 28 29 30 31 32 33 34 35 36 37 38 39 40 41 42 43 44 45 46 47 48 49 50

385
NZUS93 KARX 050059
HRRWXR

CURRENT HOURLY OBSERVATIONS ACROSS
MUCH OF THE UPPER MISSISSIPPI VALLEY
NATIONAL WEATHER SERVICE LA CROSSE WI
700 PM CST SUN DEC 04 2016


...SOUTHEAST MINNESOTA...


CITY           SKY/WX    TMP DP  RH WIND       PRES   REMARKS
ROCHESTER      CLOUDY    34  32  92 SW13      29.78F WCI  25
ROCHESTER/MAYO CLOUDY    34  34 100 SW15G22   29.78F WCI  24
WINONA         CLOUDY    36  32  87 SW9       29.81F WCI  29
AUSTIN         NOT AVBL
ALBERT LEA     MOCLDY    39  37  93 SW9       29.79F FOG     WCI  33
DODGE CENTER   PTCLDY    34  32  93 SW14      29.77F WCI  24
PRESTON        CLOUDY    32  30  93 SW9       29.81S WCI  24
OWATONNA       PTCLDY    36  32  87 SW12G17   29.77F WCI  27
FARIBAULT      PTCLDY    36  34  93 S5        29.77F WCI  32
$$

...ELSEWHERE IN MINNESOTA...


CITY           SKY/WX    TMP DP  RH WIND       PRES   REMARKS
MINNEAPOLIS    CLOUDY    38  32  79 W10       29.75S WCI  31
INTNL FALLS    LGT SNOW  31  29  92 SE7       29.61F VSB 1   WCI  24
DULUTH         FRZ DRZL  31  31 100 S9        29.65F FOG     WCI  23
RED WING       CLOUDY    37  34  87 SW3       29.76S
REDWOOD FALLS  CLEAR     34  29  82 W5        29.77F WCI  30
MANKATO        CLEAR     37  31  78 W10       29.79R WCI  30
WORTHINGTON    CLEAR     35  31  85 SW10      29.79F WCI  27
FAIRMONT       CLEAR     36  32  85 W12       29.80S WCI  28
$$

...SOUTHWEST WISCONSIN...


CITY           SKY/WX    TMP DP  RH WIND       PRES   REMARKS
LA CROSSE      CLOUDY    35  33  92 S7        29.83S WCI  29
PRAIRIE DU CHI CLOUDY    34  32  94 SW3       29.86F
BOSCOBEL       CLOUDY    34  32  92 SW5       29.86F WCI  30
LONE ROCK      CLOUDY    32  30  93 S7        29.86F FOG     WCI  26
PLATTEVILLE    CLOUDY    32  32 100 SW8       29.87S VSB 3/4 WCI  25
FORT MC COY    CLOUDY    32  32 100 S5        29.82F WCI  27
CAMP DOUGLAS   CLOUDY    32  30  93 S5        29.81F WCI  27
MAUSTON-NEW LI CLOUDY    32  30  94 S5        29.82F FOG     WCI  27
VIROQUA        CLOUDY    32  32 100 SW9       29.81F WCI  24
WIS DELLS      CLOUDY    31  29  94 SW6       29.83F FOG     WCI  25
$$

...ELSEWHERE IN WISCONSIN...


CITY           SKY/WX    TMP DP  RH WIND       PRES   REMARKS
MILWAUKEE      LGT SNOW  34  31  88 SW6       29.87F FOG     WCI  29
MADISON        CLOUDY    31  29  92 SW5       29.85F WCI  26
GREEN BAY      LGT SNOW  33  33 100 S6        29.83F FOG     WCI  28
EAU CLAIRE     FLURRIES  34  32  93 S6        29.75F WCI  29
BLACK RVR FLS  DRIZZLE   33  33 100 SW3       29.80F
MEDFORD        CLOUDY    29  28  96 S10       29.75F FOG     WCI  20
WAUSAU         CLOUDY    30  29  96 S8        29.76F FOG     WCI  22
WIS RAPIDS     CLOUDY    31  31 100 SW9       29.81F WCI  23
MARSHFIELD     FRZ RAIN  30  29  96 S12       29.76F FOG     WCI  20
RICE LAKE      CLOUDY    33  32  96 S7        29.74F WCI  27
$$

...NORTHEAST IOWA...


CITY           SKY/WX    TMP DP  RH WIND       PRES   REMARKS
WATERLOO       CLOUDY    33  30  88 SW9       29.88S WCI  25
DUBUQUE        CLOUDY    31  31 100 SW9       29.87S FOG     WCI  23
DECORAH        CLOUDY    32  30  93 VRB6      29.83S WCI  26
MASON CITY     CLOUDY    34  32  92 SW16      29.84F WCI  24
CHARLES CITY   CLOUDY    34  32  93 SW10      29.85F WCI  26
OELWEIN        CLOUDY    32  32 100 W9        29.87S WCI  24
$$

...ELSEWHERE IN IOWA...


CITY           SKY/WX    TMP DP  RH WIND       PRES   REMARKS
DES MOINES     CLEAR     34  32  92 S8        29.91S WCI  27
IOWA CITY      CLOUDY    34  32  92 W7        29.93S WCI  28
FORT DODGE     CLEAR     32  28  86 S6        29.87F WCI  26
MARSHALLTOWN   CLOUDY    33  32  96 W9        29.90R FOG     WCI  25
CEDAR RAPIDS   CLOUDY    33  32  96 SW8       29.90R WCI  26
$$

...NORTHERN ILLINOIS...


CITY           SKY/WX    TMP DP  RH WIND       PRES   REMARKS
CHICAGO-OHARE  LGT SNOW  31  30  96 W3        29.88F FOG
CHICAGO-MIDWAY LGT SNOW  33  31  92 NW6       29.89F FOG     WCI  28
MOLINE         CLOUDY    34  31  88 SW7       29.92R FOG     WCI  28
ROCKFORD       CLOUDY    30  29  96 S5        29.91F FOG     WCI  25
PEORIA         CLOUDY    33  33 100 SW3       29.95R FOG
$$

NOTE: "FAIR" INDICATES FEW OR NO CLOUDS BELOW 12,000 FEET WITH NO
SIGNIFICANT WEATHER AND/OR OBSTRUCTIONS TO VISIBILITY. WIND
SPEEDS ARE IN MILES-PER-HOUR.




USA.gov is the U.S. government's official web portal to all federal, state and local government web resources and services.